Showing default

FENGYUN 3C, 39260

Orbit data source: Space-Track

FENGYUN 3C, 39260 is a payload satellite owned by CNMSC (CN) in SSO that was launched on Mon, 23 Sep 2013 UTC via a CHANG ZHENG 4C launch vehicle from the Taiyaun Space Center, China (TSC). Payload-class satellites include a variety of spacecraft equipped with specific instruments for various scientific and technological missions. These include communications satellites like Starlink; space stations such as the ISS; scientific satellites like the Hubble; Earth observation satellites from companies like Planet Labs, Umbra, and HawkEye 360; GPS; miniature CubeSats for education and research; and military/defense satellites.

Loading next visibility...
Identifier
39260, 2013-052A
Orbit
SSO
Country
Flag of CNCN / PRC
Related business
Manufacturer
SISE
Mission
Operational Civil Weather
Bus & Motor
FY-3, Unknown motor
Mass
2,200 kg wet, 2,130 kg dry
Launch date (UTC)
2013-09-23 (13 years ago)
Launch vehicle
CHANG ZHENG 4C
Launch site
Taiyaun Space Center, China (TSC)
Object type
Payload
Rocket body
Debris
Shape & HBR
Box + 2 Pan, 5.0 m
Radar Cross Section
15.104 m², Large (>1 m²)

Expand to show TLE details & history
Last TLE update: 1 day ago

TLE from 1 day ago
0 FENGYUN 3C
1 39260U 13052A   26172.49624285  .00000036  00000-0  39296-4 0  9991
2 39260  98.4988 146.1733 0015000  15.7162 344.4476 14.15755814659172
Epoch: 2026-06-21T11:54Z
TLE epoch observation values (Epoch: 2026-06-21T11:54:35.382Z)
Latitude
0.00004°
Longitude
57.83019°
Altitude
832.226 km
Speed
7.442 km/s
True Right ascension
09h 44m 41s
True Declination
0° 00' 00"
Sunlit
Object was in daylight at epoch
Visualization orbit readout
Latitude
Unknown
Longitude
Unknown
Altitude
Unknown
Speed
Unknown
Apparent Right ascension
Unknown
Apparent Declination
Unknown
Sunlit
N/A
Visualization observer readout
Local Sidereal Time
23:08:02
Azimuth
Unknown
Elevation
Unknown
Doppler factor
Unknown
Orbital elements
Apogee altitude
847.719 km
Perigee altitude
826.074 km
Semi-major axis
7,215.033 km
Eccentricity
0.0015
Inclination
98.4988°
RAAN
146.1733°
Arg. of periapsis
15.7162°
True anomaly
344.40143°
Mean anomaly
344.4476°
Eccentric anomaly
344.42452°
Mean motion
3.54149 °/min
Orbital period
101.65 mins
BSTAR
0.000039296
Loading maneuver chart data...
Computing Atmospheric mass density...
Loading historical data...
Loading historical data...
Loading historical data...
Loading historical data...
Loading historical data...
Loading historical data...
Loading historical data...
Other satellites on launch #52 in the year 2013 (2013-09-23 UTC)

Documentation

Showing up to 5 results
|